Home   Weather   Taiyuan   Past weeks

Flag for China Past Weather in Taiyuan, Shanxi, China — Yesterday and Last 2 Weeks

Now
75 °F

Sunny.


Feels Like: 75 °F
Forecast: 52 / 71 °F
Wind: 3 mph from West

Location: Taiyuan Airport

Current Time: Apr 23, 2017 at 7:56:39 pm

Latest Report: Apr 23, 2017 at 7:00 pm


Visibility: 10 mi

Pressure: 29.68 "Hg (27.10 "Hg at 790m altitude)

Humidity: 9%

Dew Point: 12 °F

Location of TaiyuanLocation

Past Weather in Taiyuan — Graph

°F

Taiyuan Temperature Yesterday

Maximum temperature yesterday: 72 °F (at 3:30 pm)
Minimum temperature yesterday: 37 °F (at 5:30 am)
Average temperature yesterday: 55 °F

High & Low Weather Summary for the Past Weeks

 TemperatureHumidityPressure
High81 °F (Apr 23, 3:00 pm)100% (Apr 11, 2:00 am)30.24 "Hg (Apr 11, 2:00 am)
Low36 °F (Apr 12, 5:30 am)6% (Apr 23, 4:30 pm)29.53 "Hg (Apr 17, 3:30 pm)
Average54 °F51%29.93 "Hg
* Reported Apr 8 6:00 pm — Apr 23 6:30 pm, Taiyuan, Weather by CustomWeather, © 2017

Note: Actual official high and low records may vary slightly from our data, if they occured in-between our weather recording intervals... More about our weather records

Advertising

Taiyuan Weather History for the Previous 24 Hours

Scroll right to see more
 ConditionsComfort  
Time TempWeatherWind HumidityBarometerVisibility
6:30 pm
Sun, Apr 23
75 °FSunny.8 mph10%29.68 "Hg10 mi
6:00 pm79 °FPassing clouds.10 mph7%29.68 "HgN/A
5:30 pm81 °FPassing clouds.13 mph7%29.68 "HgN/A
5:00 pm81 °FPassing clouds.13 mph6%29.68 "HgN/A
4:30 pm81 °FPassing clouds.13 mph6%29.68 "HgN/A
3:30 pm81 °FPassing clouds.8 mph11%29.68 "HgN/A
3:00 pm81 °FPassing clouds.8 mph8%29.68 "HgN/A
2:30 pm77 °FPassing clouds.3 mph13%29.71 "HgN/A
2:00 pm77 °FPassing clouds.1 mph14%29.74 "HgN/A
1:30 pm75 °FSunny.1 mph16%29.77 "Hg10 mi
1:00 pm75 °FSunny.3 mph14%29.77 "Hg10 mi
12:30 pm73 °FPassing clouds.6 mph16%29.80 "HgN/A
12:00 pm72 °FPassing clouds.8 mph16%29.80 "HgN/A
11:30 am70 °FPassing clouds.8 mph18%29.83 "HgN/A
10:30 am66 °FPassing clouds.3 mph24%29.86 "HgN/A
10:00 am64 °FPassing clouds.3 mph24%29.89 "HgN/A
9:30 am63 °FPassing clouds.3 mph27%29.89 "HgN/A
9:00 am61 °FPassing clouds.3 mph27%29.89 "HgN/A
8:30 am59 °FSunny.1 mph31%29.89 "Hg10 mi
8:00 am57 °FSunny.1 mph36%29.89 "Hg10 mi
7:30 am52 °FSunny.1 mph44%29.89 "Hg10 mi
7:00 am50 °FSunny.1 mph58%29.89 "Hg10 mi
6:30 am45 °FSunny.1 mph57%29.86 "Hg10 mi
6:00 am43 °FSunny.1 mph61%29.86 "Hg10 mi
5:30 am45 °FClear.1 mph53%29.86 "Hg10 mi
5:00 am45 °FPassing clouds.3 mph53%29.86 "HgN/A
4:30 am46 °FPassing clouds.3 mph50%29.83 "HgN/A
4:00 am48 °FPassing clouds.3 mph46%29.83 "HgN/A
3:30 am48 °FClear.3 mph46%29.83 "Hg10 mi
2:30 am48 °FClear.3 mph50%29.83 "Hg10 mi
2:00 am50 °FPassing clouds.3 mph43%29.83 "HgN/A
1:30 am48 °FClear.3 mph46%29.83 "Hg10 mi
1:00 am52 °FClear.6 mph41%29.83 "Hg10 mi
12:30 am48 °FPassing clouds.6 mph50%29.86 "HgN/A
12:00 am48 °FClear.1 mph46%29.86 "Hg10 mi
11:30 pm
Sat, Apr 22
50 °FPassing clouds.3 mph43%29.86 "HgN/A
11:00 pm54 °FPassing clouds.3 mph35%29.86 "HgN/A
10:30 pm54 °FClear.1 mph33%29.86 "Hg10 mi
10:00 pm55 °FPassing clouds.6 mph31%29.86 "HgN/A
9:30 pm55 °FClear.1 mph28%29.86 "Hg10 mi
9:00 pm63 °FClear.3 mph19%29.86 "Hg10 mi
8:30 pm64 °FPassing clouds.3 mph18%29.83 "HgN/A
8:00 pm61 °FPassing clouds.3 mph20%29.83 "HgN/A
7:30 pm64 °FClear.3 mph16%29.80 "Hg10 mi
7:00 pm68 °FSunny.1 mph13%29.80 "Hg10 mi
Weather by CustomWeather, © 2017

See weather overviewHow to use our weather pages